| time (UTC) | temp F | wind direction | speed MPH | gust MPH | rain 1hr in | rain 24hr in | rain mn in | humidity % | barometer mb |
| 20260906212704 | 71 | 330 | 5.0 | 6.0 | 0.00 | 0.11 | 0.00 | 52 | 1014.9 |
| 20260906212204 | 71 | 10 | 5.0 | 10.0 | 0.00 | 0.11 | 0.00 | 52 | 1014.9 |
| 20260906210204 | 72 | 359 | 3.0 | 10.0 | 0.00 | 0.11 | 0.00 | 53 | 1014.9 |
| 20260906204704 | 71 | 332 | 4.0 | 7.0 | 0.00 | 0.11 | 0.00 | 54 | 1014.8 |
| 20260906204205 | 71 | 300 | 2.0 | 7.0 | 0.00 | 0.11 | 0.00 | 57 | 1014.8 |
| 20260906202705 | 70 | 352 | 4.0 | 10.0 | 0.00 | 0.11 | 0.00 | 55 | 1014.9 |
| 20260906200704 | 70 | 22 | 4.0 | 8.0 | 0.00 | 0.11 | 0.00 | 57 | 1015.0 |
| 20260906200205 | 70 | 17 | 5.0 | 8.0 | 0.00 | 0.11 | 0.00 | 57 | 1014.9 |
| 20260906194205 | 71 | 330 | 3.0 | 12.0 | 0.00 | 0.11 | 0.00 | 58 | 1015.1 |
| 20260906192704 | 70 | 3 | 4.0 | 7.0 | 0.00 | 0.11 | 0.00 | 61 | 1015.1 |
| 20260906192204 | 69 | 37 | 2.0 | 12.0 | 0.00 | 0.11 | 0.00 | 63 | 1015.2 |
| 20260906190705 | 67 | 27 | 2.0 | 3.0 | 0.00 | 0.11 | 0.00 | 67 | 1015.4 |
| 20260906190205 | 67 | 31 | 4.0 | 10.0 | 0.00 | 0.11 | 0.00 | 67 | 1015.5 |
| 20260906184704 | 67 | 0 | 3.0 | 6.0 | 0.00 | 0.11 | 0.00 | 67 | 1015.6 |
| 20260906184204 | 68 | 355 | 4.0 | 7.0 | 0.00 | 0.11 | 0.00 | 66 | 1015.6 |
| 20260906180704 | 68 | 10 | 3.0 | 6.0 | 0.00 | 0.11 | 0.00 | 66 | 1015.9 |
| 20260906180205 | 68 | 12 | 3.0 | 8.0 | 0.00 | 0.11 | 0.00 | 66 | 1016.0 |
| 20260906174704 | 68 | 321 | 3.0 | 7.0 | 0.00 | 0.11 | 0.00 | 69 | 1016.2 |
| 20260906174204 | 68 | 288 | 2.0 | 8.0 | 0.00 | 0.11 | 0.00 | 67 | 1016.2 |
| 20260906172204 | 68 | 331 | 3.0 | 10.0 | 0.00 | 0.11 | 0.00 | 68 | 1016.3 |
| 20260906164705 | 67 | 278 | 4.0 | 10.0 | 0.00 | 0.11 | 0.00 | 70 | 1016.5 |
| 20260906164205 | 67 | 324 | 5.0 | 9.0 | 0.00 | 0.11 | 0.00 | 69 | 1016.6 |
| 20260906162704 | 66 | 302 | 5.0 | 8.0 | 0.00 | 0.11 | 0.00 | 70 | 1016.8 |
| 20260906162204 | 66 | 313 | 4.0 | 12.0 | 0.00 | 0.11 | 0.00 | 68 | 1016.8 |
| 20260906160705 | 66 | 351 | 5.0 | 7.0 | 0.00 | 0.11 | 0.00 | 68 | 1016.8 |
| 20260906160204 | 66 | 328 | 2.0 | 8.0 | 0.00 | 0.11 | 0.00 | 68 | 1016.8 |
| 20260906154204 | 66 | 5 | 2.0 | 8.0 | 0.00 | 0.11 | 0.00 | 71 | 1017.1 |
| 20260906152704 | 65 | 306 | 3.0 | 7.0 | 0.00 | 0.11 | 0.00 | 73 | 1017.4 |
| 20260906152204 | 65 | 337 | 3.0 | 6.0 | 0.00 | 0.11 | 0.00 | 72 | 1017.4 |
| 20260906150705 | 65 | 309 | 2.0 | 3.0 | 0.00 | 0.11 | 0.00 | 76 | 1017.5 |
| 20260906150204 | 64 | 26 | 2.0 | 3.0 | 0.00 | 0.11 | 0.00 | 75 | 1017.6 |
| 20260906144704 | 63 | 7 | 2.0 | 3.0 | 0.00 | 0.11 | 0.00 | 77 | 1017.6 |
| 20260906144205 | 63 | 14 | 2.0 | 5.0 | 0.00 | 0.11 | 0.00 | 78 | 1017.6 |
| 20260906142705 | 62 | 357 | 2.0 | 3.0 | 0.00 | 0.11 | 0.00 | 79 | 1017.7 |
| 20260906142203 | 62 | 325 | 3.0 | 5.0 | 0.00 | 0.11 | 0.00 | 80 | 1017.8 |
| 20260906140704 | 61 | 309 | 2.0 | 5.0 | 0.00 | 0.11 | 0.00 | 82 | 1017.8 |
| 20260906134704 | 60 | 294 | 2.0 | 3.0 | 0.00 | 0.11 | 0.00 | 85 | 1017.8 |
| 20260906134204 | 59 | 287 | 2.0 | 6.0 | 0.00 | 0.11 | 0.00 | 86 | 1017.9 |
| 20260906132204 | 58 | 344 | 2.0 | 5.0 | 0.00 | 0.11 | 0.00 | 87 | 1017.8 |
| 20260906130703 | 57 | 24 | 2.0 | 3.0 | 0.00 | 0.11 | 0.00 | 90 | 1017.9 |
| 20260906130204 | 57 | 350 | 2.0 | 6.0 | 0.00 | 0.11 | 0.00 | 91 | 1018.0 |
| 20260906124704 | 56 | 50 | 3.0 | 5.0 | 0.00 | 0.11 | 0.00 | 91 | 1017.9 |
| 20260906122704 | 56 | 34 | 4.0 | 9.0 | 0.00 | 0.11 | 0.00 | 90 | 1017.9 |
| 20260906122204 | 55 | 64 | 2.0 | 8.0 | 0.00 | 0.11 | 0.00 | 90 | 1017.9 |
| 20260906120704 | 55 | 8 | 2.0 | 5.0 | 0.00 | 0.11 | 0.00 | 90 | 1017.7 |
| 20260906120204 | 55 | 8 | 3.0 | 6.0 | 0.00 | 0.11 | 0.00 | 90 | 1017.7 |
| 20260906114704 | 53 | 355 | 2.0 | 3.0 | 0.00 | 0.11 | 0.00 | 91 | 1017.6 |
| 20260906114204 | 53 | 13 | 2.0 | 6.0 | 0.00 | 0.11 | 0.00 | 92 | 1017.7 |
| 20260906112704 | 52 | 32 | 2.0 | 3.0 | 0.00 | 0.11 | 0.00 | 92 | 1017.4 |
| 20260906112204 | 52 | 5 | 2.0 | 3.0 | 0.00 | 0.11 | 0.00 | 92 | 1017.4 |
| 20260906110704 | 52 | 10 | 2.0 | 5.0 | 0.00 | 0.11 | 0.00 | 92 | 1017.3 |
| 20260906110204 | 52 | 11 | 2.0 | 3.0 | 0.00 | 0.11 | 0.00 | 92 | 1017.3 |
| 20260906104703 | 52 | 20 | 1.0 | 3.0 | 0.00 | 0.11 | 0.00 | 92 | 1017.1 |
| 20260906104204 | 52 | 20 | 2.0 | 3.0 | 0.00 | 0.11 | 0.00 | 92 | 1017.0 |
| 20260906102703 | 52 | 20 | 1.0 | 2.0 | 0.00 | 0.11 | 0.00 | 92 | 1016.8 |
| 20260906102203 | 52 | 20 | 2.0 | 3.0 | 0.00 | 0.11 | 0.00 | 92 | 1016.8 |
| 20260906100704 | 52 | 12 | 2.0 | 3.0 | 0.00 | 0.11 | 0.00 | 92 | 1016.7 |
| 20260906094703 | 52 | 19 | 1.0 | 3.0 | 0.00 | 0.11 | 0.00 | 91 | 1016.6 |
| 20260906094204 | 52 | 20 | 2.0 | 3.0 | 0.00 | 0.11 | 0.00 | 91 | 1016.6 |
| 20260906092704 | 53 | 28 | 2.0 | 3.0 | 0.00 | 0.11 | 0.00 | 91 | 1016.5 |
| 20260906092204 | 53 | 25 | 2.0 | 6.0 | 0.00 | 0.11 | 0.00 | 91 | 1016.4 |
| 20260906090703 | 52 | 46 | 2.0 | 5.0 | 0.00 | 0.11 | 0.00 | 91 | 1016.2 |
| 20260906090203 | 52 | 10 | 1.0 | 5.0 | 0.00 | 0.11 | 0.00 | 91 | 1016.2 |
| 20260906084204 | 53 | 50 | 2.0 | 7.0 | 0.00 | 0.11 | 0.00 | 90 | 1016.0 |
| 20260906082704 | 53 | 12 | 2.0 | 5.0 | 0.00 | 0.11 | 0.00 | 90 | 1016.0 |
| 20260906082204 | 53 | 12 | 3.0 | 7.0 | 0.00 | 0.11 | 0.00 | 89 | 1016.1 |
| 20260906080703 | 53 | 6 | 2.0 | 3.0 | 0.00 | 0.11 | 0.00 | 89 | 1016.0 |
| 20260906080204 | 53 | 0 | 4.0 | 7.0 | 0.00 | 0.11 | 0.00 | 89 | 1016.1 |
| 20260906074205 | 53 | 0 | 3.0 | 3.0 | 0.00 | 0.11 | 0.00 | 90 | 1016.1 |
| 20260906072706 | 53 | 28 | 2.0 | 3.0 | 0.00 | 0.11 | 0.00 | 90 | 1016.0 |
| 20260906072205 | 53 | 20 | 2.0 | 5.0 | 0.00 | 0.11 | 0.00 | 90 | 1015.9 |
| 20260906070205 | 53 | 11 | 3.0 | 5.0 | 0.00 | 0.11 | 0.00 | 91 | 1015.8 |
| 20260906064205 | 54 | 44 | 2.0 | 7.0 | 0.00 | 0.11 | 0.00 | 90 | 1015.7 |
| 20260906062705 | 54 | 37 | 2.0 | 3.0 | 0.00 | 0.11 | 0.00 | 90 | 1015.7 |
| 20260906062205 | 54 | 49 | 2.0 | 5.0 | 0.00 | 0.11 | 0.00 | 90 | 1015.7 |
| 20260906060705 | 54 | 44 | 2.0 | 7.0 | 0.00 | 0.11 | 0.00 | 91 | 1015.7 |
| 20260906060205 | 54 | 45 | 3.0 | 7.0 | 0.00 | 0.11 | 0.00 | 91 | 1015.6 |
| 20260906054706 | 54 | 36 | 3.0 | 5.0 | 0.00 | 0.11 | 0.00 | 91 | 1015.8 |
| 20260906054205 | 54 | 63 | 2.0 | 7.0 | 0.00 | 0.11 | 0.00 | 91 | 1015.8 |
| 20260906052705 | 54 | 47 | 2.0 | 7.0 | 0.00 | 0.11 | 0.00 | 90 | 1015.8 |
| 20260906052205 | 54 | 38 | 3.0 | 7.0 | 0.00 | 0.11 | 0.00 | 90 | 1015.8 |
| 20260906050705 | 55 | 53 | 2.0 | 5.0 | 0.00 | 0.11 | 0.00 | 90 | 1015.9 |
| 20260906050205 | 55 | 34 | 2.0 | 6.0 | 0.00 | 0.11 | 0.00 | 90 | 1015.8 |
| 20260906044705 | 55 | 38 | 2.0 | 5.0 | 0.00 | 0.11 | 0.00 | 90 | 1015.7 |
| 20260906044205 | 55 | 58 | 3.0 | 9.0 | 0.00 | 0.11 | 0.00 | 90 | 1015.7 |
| 20260906042705 | 55 | 49 | 3.0 | 7.0 | 0.00 | 0.11 | 0.00 | 89 | 1015.7 |
| 20260906040705 | 55 | 53 | 5.0 | 7.0 | 0.00 | 0.11 | 0.00 | 89 | 1015.6 |
| 20260906034205 | 55 | 63 | 5.0 | 12.0 | 0.00 | 0.11 | 0.11 | 89 | 1015.4 |
| 20260906032704 | 55 | 68 | 5.0 | 13.0 | 0.00 | 0.11 | 0.11 | 89 | 1015.4 |
| 20260906032205 | 55 | 51 | 5.0 | 9.0 | 0.00 | 0.11 | 0.11 | 89 | 1015.4 |
| 20260906030205 | 55 | 20 | 2.0 | 7.0 | 0.00 | 0.11 | 0.11 | 89 | 1015.4 |
| 20260906024705 | 55 | 52 | 3.0 | 8.0 | 0.00 | 0.11 | 0.11 | 90 | 1015.5 |
| 20260906022705 | 55 | 19 | 2.0 | 3.0 | 0.01 | 0.11 | 0.11 | 91 | 1015.7 |
| 20260906022205 | 55 | 19 | 2.0 | 3.0 | 0.01 | 0.11 | 0.11 | 91 | 1015.6 |
| 20260906020705 | 55 | 10 | 2.0 | 3.0 | 0.02 | 0.11 | 0.11 | 91 | 1015.6 |
| 20260906020205 | 55 | 7 | 2.0 | 3.0 | 0.03 | 0.11 | 0.11 | 91 | 1015.7 |
| 20260906014705 | 55 | 18 | 2.0 | 6.0 | 0.06 | 0.11 | 0.11 | 90 | 1015.8 |
| 20260906014205 | 55 | 40 | 3.0 | 8.0 | 0.08 | 0.11 | 0.11 | 90 | 1015.5 |
| 20260906012705 | 55 | 56 | 6.0 | 14.0 | 0.10 | 0.10 | 0.10 | 90 | 1015.1 |
| 20260906012204 | 55 | 68 | 5.0 | 14.0 | 0.10 | 0.10 | 0.10 | 90 | 1014.8 |
| 20260906010205 | 56 | 91 | 6.0 | 15.0 | 0.08 | 0.08 | 0.08 | 88 | 1015.3 |
| 20260906004206 | 57 | 76 | 3.0 | 8.0 | 0.03 | 0.03 | 0.03 | 88 | 1015.9 |
| 20260906002705 | 59 | 17 | 3.0 | 5.0 | 0.00 | 0.00 | 0.00 | 85 | 1016.0 |
| 20260906002205 | 59 | 14 | 3.0 | 9.0 | 0.00 | 0.00 | 0.00 | 83 | 1015.9 |
| 20260906000705 | 61 | 7 | 5.0 | 12.0 | 0.00 | 0.00 | 0.00 | 76 | 1015.6 |
| 20260906000205 | 62 | 17 | 4.0 | 9.0 | 0.00 | 0.00 | 0.00 | 74 | 1015.5 |
| 20260905234705 | 62 | 7 | 6.0 | 13.0 | 0.00 | 0.00 | 0.00 | 72 | 1015.4 |
| 20260905234205 | 62 | 50 | 3.0 | 13.0 | 0.00 | 0.00 | 0.00 | 71 | 1015.3 |
| 20260905232705 | 63 | 25 | 6.0 | 10.0 | 0.00 | 0.00 | 0.00 | 68 | 1015.0 |
| 20260905232205 | 63 | 29 | 5.0 | 12.0 | 0.00 | 0.00 | 0.00 | 68 | 1014.9 |
| 20260905230705 | 64 | 29 | 3.0 | 10.0 | 0.00 | 0.00 | 0.00 | 71 | 1014.4 |
| 20260905230205 | 64 | 39 | 6.0 | 15.0 | 0.00 | 0.00 | 0.00 | 70 | 1014.5 |
| 20260905224704 | 65 | 71 | 5.0 | 12.0 | 0.00 | 0.00 | 0.00 | 70 | 1014.4 |
| 20260905224204 | 65 | 66 | 4.0 | 10.0 | 0.00 | 0.00 | 0.00 | 70 | 1014.4 |
| 20260905222705 | 65 | 81 | 3.0 | 8.0 | 0.00 | 0.00 | 0.00 | 69 | 1014.3 |
| 20260905222204 | 65 | 43 | 5.0 | 10.0 | 0.00 | 0.00 | 0.00 | 68 | 1014.2 |
| 20260905220704 | 66 | 46 | 6.0 | 12.0 | 0.00 | 0.00 | 0.00 | 67 | 1014.0 |
| 20260905220205 | 66 | 44 | 4.0 | 12.0 | 0.00 | 0.00 | 0.00 | 67 | 1014.0 |
| 20260905214704 | 67 | 31 | 3.0 | 12.0 | 0.00 | 0.00 | 0.00 | 70 | 1013.6 |
| 20260905214204 | 67 | 50 | 6.0 | 15.0 | 0.00 | 0.00 | 0.00 | 70 | 1013.5 |